Napa County, CA

8:12 PM PDT on April 23, 2018 (GMT -0700)
Napa County

Weather History for KAPC - June, 2014

Change the Weather History Date:

Friday, June 27, 2014

  Actual Average Record
Temperature  
Mean Temperature 68 °F 66 °F  
Max Temperature 81 °F 80 °F 101 °F (2003)
Min Temperature 54 °F 52 °F 46 °F (2012)
Degree Days  
Heating Degree Days 0    
Month to date heating degree days 43  
Since 1 June heating degree days 43  
Since 1 July heating degree days 2935  
Cooling Degree Days 3    
Month to date cooling degree days 27  
Year to date cooling degree days 38  
Since 1 June cooling degree days 27  
Growing Degree Days 17 (Base 50)    
Moisture  
Dew Point 57 °F    
Average Humidity 75    
Maximum Humidity 100    
Minimum Humidity 49    
Precipitation  
Precipitation 0.00 in - 0.03 in (2001)
Month to date precipitation T  
Year to date precipitation 8.27  
Since 1 July precipitation 10.47  
Sea Level Pressure  
Sea Level Pressure 29.92 in    
Wind  
Wind Speed 13 mph (WSW)    
Max Wind Speed 23 mph    
Max Gust Speed 29 mph    
Visibility 10 miles    
Events      
T = Trace of Precipitation, MM = Missing Value Source: NWS Daily Summary

Daily Weather History Graph

Daily Weather History Graph

Search for Another Location

Airport or City:

Astronomy

Jun. 27, 2014 Rise Set
Actual Time 5:47 AM PDT 8:36 PM PDT
Civil Twilight 5:16 AM PDT 9:07 PM PDT
Nautical Twilight 4:36 AM PDT 9:47 PM PDT
Astronomical Twilight 3:51 AM PDT 10:32 PM PDT
Moon 6:21 AM PDT (6/27) 8:47 PM PDT (6/27)
Length of Visible Light 15h 51m
Length of Day
14h 48m
New Moon, 0% of the Moon is Illuminated
Jun 27
New Moon
Jul 5
First Quarter
Jul 12
Full
Jul 18
Last Quarter
Jul 26
New

Hourly Weather History & Observations

Time (PDT) Temp. Heat Index Dew Point Humidity Pressure Visibility Wind Dir Wind Speed Gust Speed Precip Events Conditions
12:31 AM 55.9 °F - 55.0 °F 97% 29.96 in 10.0 mi West 9.2 mph - N/A   Partly Cloudy
12:54 AM 55.9 °F - 55.0 °F 97% 29.93 in 10.0 mi West 8.1 mph - N/A   Partly Cloudy
1:54 AM 55.0 °F - 55.0 °F 100% 29.93 in 10.0 mi West 6.9 mph - N/A   Partly Cloudy
2:41 AM 55.9 °F - 55.0 °F 97% 29.95 in 10.0 mi WSW 6.9 mph - N/A   Mostly Cloudy
2:54 AM 55.9 °F - 55.0 °F 97% 29.93 in 10.0 mi West 5.8 mph - N/A   Overcast
3:39 AM 55.0 °F - 54.0 °F 96% 29.95 in 10.0 mi West 15.0 mph - N/A   Partly Cloudy
3:54 AM 55.0 °F - 54.0 °F 96% 29.92 in 10.0 mi West 12.7 mph - N/A   Clear
4:08 AM 55.0 °F - 54.0 °F 96% 29.95 in 10.0 mi West 10.4 mph - N/A   Partly Cloudy
4:33 AM 55.0 °F - 54.0 °F 96% 29.94 in 10.0 mi West 12.7 mph - N/A   Mostly Cloudy
4:54 AM 55.0 °F - 54.0 °F 96% 29.92 in 10.0 mi West 9.2 mph - N/A   Mostly Cloudy
5:54 AM 54.0 °F - 54.0 °F 100% 29.92 in 10.0 mi West 6.9 mph - N/A   Overcast
6:54 AM 55.9 °F - 55.9 °F 100% 29.93 in 10.0 mi WSW 4.6 mph - N/A   Scattered Clouds
7:16 AM 57.0 °F - 55.0 °F 93% 29.96 in 10.0 mi West 5.8 mph - N/A   Scattered Clouds
7:54 AM 59.0 °F - 55.9 °F 90% 29.94 in 10.0 mi SW 3.5 mph - N/A   Scattered Clouds
8:54 AM 63.0 °F - 55.9 °F 78% 29.94 in 10.0 mi SW 8.1 mph - N/A   Scattered Clouds
9:54 AM 70.0 °F - 55.0 °F 59% 29.94 in 10.0 mi West 15.0 mph - N/A   Clear
10:21 AM 69.1 °F - 57.9 °F 68% 29.96 in 10.0 mi SSW 10.4 mph - N/A   Clear
10:54 AM 70.0 °F - 57.9 °F 65% 29.94 in 10.0 mi SW 11.5 mph - N/A   Overcast
11:54 AM 73.9 °F - 57.9 °F 57% 29.93 in 10.0 mi SW 15.0 mph - N/A   Clear
12:54 PM 75.9 °F - 60.1 °F 58% 29.93 in 10.0 mi SW 18.4 mph - N/A   Clear
1:33 PM 80.1 °F 80.7 °F 59.0 °F 48% 29.94 in 10.0 mi West 18.4 mph - N/A   Clear
1:54 PM 80.1 °F 80.7 °F 59.0 °F 48% 29.92 in 10.0 mi West 17.3 mph - N/A   Clear
2:54 PM 80.1 °F 80.9 °F 60.1 °F 50% 29.91 in 10.0 mi West 19.6 mph 25.3 mph N/A   Clear
3:54 PM 79.0 °F - 61.0 °F 54% 29.89 in 10.0 mi West 19.6 mph 26.5 mph N/A   Clear
4:54 PM 78.1 °F - 60.1 °F 54% 29.89 in 10.0 mi West 16.1 mph 24.2 mph N/A   Clear
5:54 PM 75.9 °F - 60.1 °F 58% 29.87 in 10.0 mi West 18.4 mph - N/A   Clear
6:54 PM 73.9 °F - 60.1 °F 62% 29.86 in 10.0 mi West 23.0 mph 27.6 mph N/A   Clear
7:54 PM 69.1 °F - 60.1 °F 73% 29.88 in 10.0 mi West 15.0 mph - N/A   Clear
8:54 PM 64.9 °F - 57.9 °F 78% 29.87 in 10.0 mi West 20.7 mph 28.8 mph N/A   Clear
9:54 PM 63.0 °F - 57.0 °F 81% 29.89 in 10.0 mi WSW 11.5 mph - N/A   Clear
10:54 PM 62.1 °F - 55.9 °F 80% 29.90 in 10.0 mi Variable 5.8 mph - N/A   Clear
11:54 PM 61.0 °F - 55.9 °F 83% 29.89 in 10.0 mi West 12.7 mph - N/A   Clear